Weather History for Abbotsford, BC

Change the Weather History Date:

Saturday, October 8, 2011

  Actual Average Record
Temperature  
Mean Temperature 54 °F -  
Max Temperature 63 °F 56 °F 71 °F (2012)
Min Temperature 45 °F 40 °F 37 °F (2008)
Degree Days  
Heating Degree Days 11    
Growing Degree Days 4 (Base 50)    
Moisture  
Dew Point 48 °F    
Average Humidity 83    
Maximum Humidity 100    
Minimum Humidity 49    
Precipitation  
Precipitation 0.03 in 0.23 in - ()
Sea Level Pressure  
Sea Level Pressure 30.16 in    
Wind  
Wind Speed 2 mph ()    
Max Wind Speed 8 mph    
Max Gust Speed -    
Visibility 3.2 miles    
Events Fog , Rain    
Averages and records for this station are not official NWS values.
T = Trace of Precipitation, MM = Missing Value Source: Averaged Metar Reports

Daily Weather History Graph

Daily Weather History Graph

Search for Another Location

Airport:

Trip Planner

Search our weather history database for the weather conditions in past years. The results will help you decide how hot, cold, wet, or windy it might be!

Date:

Astronomy

Oct. 08, 2011 Rise Set
Actual Time 7:19 AM PDT 6:33 PM PDT
Civil Twilight 6:47 AM PDT 7:05 PM PDT
Nautical Twilight 6:10 AM PDT 7:42 PM PDT
Astronomical Twilight 5:33 AM PDT 8:19 PM PDT
Moon 4:57 PM PDT (10/8) 3:58 AM PDT (10/8)
Length of Visible Light 12h 18m
Length of Day
11h 14m
Waxing Gibbous, 90% of the Moon is Illuminated
Oct 8
Waxing Gibbous
Oct 11
Full
Oct 19
Last Quarter
Oct 26
New
Nov 2
First Quarter

Hourly Weather History & Observations

Time (PDT) Temp. Windchill Dew Point Humidity Pressure Visibility Wind Dir Wind Speed Gust Speed Precip Events Conditions
12:00 AM 50.0 °F - 48.2 °F 94% 30.25 in 6.0 mi Calm Calm - N/A   Mostly Cloudy
12:16 AM - - - N/A% - 1.0 mi SW 3.5 mph - N/A   Mostly Cloudy
12:19 AM - - - N/A% - 0.8 mi SW 2.3 mph - N/A   Mostly Cloudy
12:21 AM - - - N/A% - 0.5 mi West 2.3 mph - N/A Fog Fog
12:26 AM - - - N/A% - 0.2 mi Calm Calm - N/A Fog Fog
1:00 AM 50.0 °F - 48.2 °F 94% 30.25 in 0.2 mi Calm Calm - N/A Fog Fog
1:33 AM - - - N/A% - 0.5 mi NNE 2.3 mph - N/A Fog Fog
2:00 AM 48.2 °F - 46.4 °F 93% 30.26 in 0.5 mi North 2.3 mph - N/A Fog Fog
2:09 AM - - - N/A% - 0.8 mi NE 2.3 mph - N/A   Mostly Cloudy
2:45 AM - - - N/A% - 0.5 mi Calm Calm - N/A Fog Fog
3:00 AM 46.4 °F 45.2 °F 46.4 °F 100% 30.25 in 0.5 mi North 3.5 mph - N/A Fog Fog
4:00 AM 46.4 °F 45.2 °F 46.4 °F 100% 30.25 in 0.5 mi North 3.5 mph - N/A Fog Fog
5:00 AM 48 °F - 48 °F 99% 30.24 in 1 mi NE 4.6 mph - -   Mist
5:00 AM 48.2 °F - 48.2 °F 100% 30.24 in 0.6 mi NE 4.6 mph - N/A   Clear
5:06 AM - - - N/A% - 0.8 mi NE 3.5 mph - N/A   Clear
6:00 AM 48.2 °F - 46.4 °F 93% 30.22 in 0.8 mi ENE 2.3 mph - N/A   Clear
6:53 AM - - - N/A% - 0.5 mi NNE 4.6 mph - N/A Fog Fog
7:00 AM 46.4 °F 44.3 °F 46.4 °F 100% 30.23 in 0.4 mi NNE 4.6 mph - N/A Fog Fog
7:53 AM - - - N/A% - 0.4 mi ENE 2.3 mph - N/A Fog Fog
8:00 AM 46.4 °F - 46.4 °F 100% 30.24 in 0.4 mi SE 2.3 mph - N/A Fog Fog
8:02 AM - - - N/A% - 0.2 mi South 2.3 mph - N/A Fog Fog
8:07 AM - - - N/A% - 0.1 mi South 3.5 mph - N/A Fog Fog
8:17 AM - - - N/A% - 0.4 mi South 3.5 mph - N/A Fog Fog
8:23 AM - - - N/A% - 1.0 mi South 3.5 mph - N/A   Mist
8:30 AM - - - N/A% - 0.8 mi South 2.3 mph - N/A   Mostly Cloudy
8:40 AM - - - N/A% - 0.5 mi Calm Calm - N/A Fog Fog
8:54 AM - - - N/A% - 0.8 mi Calm Calm - N/A   Mostly Cloudy
9:00 AM 48.2 °F - 46.4 °F 93% 30.24 in 2.0 mi East 2.3 mph - N/A Fog Mostly Cloudy
9:04 AM - - - N/A% - 30.0 mi East 2.3 mph - N/A Fog Mostly Cloudy
10:00 AM 48.2 °F - 48.2 °F 100% 30.22 in 30.0 mi North 6.9 mph - N/A   Mostly Cloudy
11:00 AM 52 °F - 48 °F 81% 30.19 in 28 mi NNE 5.8 mph - -   Partly Cloudy
11:00 AM 51.8 °F - 48.2 °F 88% 30.19 in 30.0 mi NE 5.8 mph - N/A   Mostly Cloudy
12:00 PM 55.4 °F - 48.2 °F 77% 30.18 in 30.0 mi NE 8.1 mph - N/A   Mostly Cloudy
1:00 PM 57.2 °F - 48.2 °F 72% 30.16 in 30.0 mi NNE 8.1 mph - N/A   Mostly Cloudy
2:00 PM 60.8 °F - 48.2 °F 63% 30.14 in 30.0 mi NE 6.9 mph - N/A   Mostly Cloudy
3:00 PM 62.6 °F - 46.4 °F 55% 30.11 in 30.0 mi ENE 5.8 mph - N/A   Partly Cloudy
4:00 PM 62.6 °F - 44.6 °F 52% 30.09 in 30.0 mi Calm Calm - N/A   Mostly Cloudy
5:00 PM 62 °F - 47 °F 49% 30.08 in 28 mi Calm Calm - -   Mostly Cloudy
5:00 PM 62.6 °F - 48.2 °F 59% 30.08 in 30.0 mi Calm Calm - N/A   Mostly Cloudy
6:00 PM 60.8 °F - 48.2 °F 63% 30.08 in 30.0 mi North 3.5 mph - N/A   Mostly Cloudy
6:43 PM - - - N/A% - 20.0 mi North 3.5 mph - N/A Rain Light Rain Showers
7:00 PM 59.0 °F - 50.0 °F 72% 30.08 in 20.0 mi WNW 3.5 mph - N/A Rain Light Rain Showers
8:00 PM 57.2 °F - 51.8 °F 82% 30.07 in 10.0 mi North 3.5 mph - N/A Rain Light Rain Showers
9:00 PM 57.2 °F - 51.8 °F 82% 30.06 in 10.0 mi NNE 5.8 mph - N/A Rain Light Rain Showers
10:00 PM 55.4 °F - 51.8 °F 88% 30.07 in 10.0 mi NNW 2.3 mph - N/A Rain Light Rain Showers
11:00 PM 56 °F - 52 °F 83% 30.07 in 10 mi Calm Calm - - Rain Light Rain Showers
11:00 PM 55.4 °F - 51.8 °F 88% 30.07 in 10.0 mi Calm Calm - N/A Rain Light Rain Showers